[[{"header":{"parameterUnit":"m.s-1","parameterCategory":2,"la1":30.2991,"la2":30.254,"lo1":-89.0895,"lo2":-89.0444,"dy":0.0017,"dx":0.0017,"nx":28,"ny":28,"refTime":"2023-04-01T21:00:00:Z","depth":"0","parameterNumber":2,"parameterNumberName":"U-component_of_CURRENTS"},"data":[0,0,0,0,0,0,0,0,0,0,0,0,0,0,0,0,0,0,0,0,0,0,0,0,0,0,0,0,0,0,0,0,0,0,0,0,0,0,0,0,0,0,0,0,0,0,0,0,0,0,0,0,0,0,0,0,0,0,0.2477,0.2477,0,0.2509,0.2509,0.2509,0.2507,0.2507,0.2507,0.2507,0.2549,0.2551,0.2552,0,0,0,0,0,0,0,0,0,0,0,0,0,0.2393,0.2394,0.2476,0.2477,0.2478,0.2509,0.2509,0.2509,0.2507,0.2507,0.2507,0.2507,0.2549,0.255,0.2552,0,0,0,0,0,0,0,0,0,0,0,0,0,0.2424,0.2394,0.2476,0.2484,0.2485,0.2509,0.2509,0.2509,0.2507,0.2507,0.2507,0.2507,0.2548,0.255,0.2552,0.2566,0,0,0.2558,0.2558,0,0,0,0,0,0,0,0,0.2422,0.2426,0.2482,0.2483,0.2485,0.2508,0.2495,0.253,0.2507,0.2494,0.2507,0.2507,0.2539,0.2542,0.2542,0.2568,0.257,0.2558,0.2559,0.256,0.256,0,0,0,0,0,0,0,0.242,0.2425,0.2485,0.2483,0.2485,0.2479,0.2483,0.2502,0.2514,0.2495,0.2496,0.2507,0.2539,0.254,0.2543,0.2571,0.2558,0.2559,0.2561,0.2561,0.2676,0.2678,0,0,0,0,0,0,0.2426,0.2423,0.2484,0.2486,0.2457,0.2481,0.2485,0.2497,0.2514,0.2517,0.2507,0.2507,0.2537,0.2541,0.2545,0.2614,0.256,0.2561,0.2562,0.2674,0.2676,0.2678,0,0,0,0,0,0,0.2424,0.2431,0.2483,0.2458,0.2465,0.2483,0.2496,0.2498,0.2503,0.2523,0.2526,0.2511,0.2537,0.2542,0.2581,0.2614,0.2562,0.2564,0.2672,0.2675,0.2677,0.2719,0,0,0,0,0,0,0.2421,0.243,0.2434,0.2459,0.2467,0.251,0.2497,0.2499,0.2511,0.2511,0.2528,0.2531,0.2537,0.2579,0.2583,0.2615,0.2565,0.2669,0.2673,0.2677,0.2716,0.2723,0.273,0,0,0,0,0,0.2418,0.2426,0.2434,0.2442,0.2475,0.2511,0.2514,0.2523,0.2512,0.2524,0.254,0.2531,0.2605,0.2582,0.2586,0.262,0.2667,0.2672,0.2676,0.2712,0.2722,0.273,0,0,0,0,0,0,0.2382,0.2428,0.2437,0.2456,0.2488,0.2512,0.2519,0.2526,0.2545,0.254,0.2552,0.2558,0.2604,0.2609,0.2583,0.2666,0.2637,0.2642,0.2663,0.2672,0.2679,0.2662,0.2567,0,0,0,0,0,0.2381,0.2399,0.2445,0.2455,0.2476,0.2497,0.2508,0.2519,0.2543,0.2549,0.2564,0.2588,0.2626,0.2645,0.2669,0.2712,0.2738,0.274,0.2747,0.2753,0.2745,0.2825,0.2839,0.2693,0.2693,0.2693,0,0,0.2364,0.2394,0.24,0.245,0.2468,0.2499,0.2502,0.2526,0.2549,0.2553,0.258,0.2608,0.2642,0.2693,0.2715,0.2702,0.2814,0.2759,0.2763,0.2751,0.2831,0.2845,0.2858,0.2696,0.2695,0.2695,0,0,0.2344,0.2374,0.2386,0.2424,0.2469,0.2493,0.2504,0.254,0.2557,0.2597,0.2612,0.2662,0.2702,0.2743,0.2768,0.2831,0.2846,0.2842,0.2868,0.2947,0.296,0.2971,0.3042,0.3059,0.285,0.285,0.285,0,0.2314,0.2346,0.2393,0.2424,0.245,0.2493,0.2515,0.2548,0.2589,0.2618,0.2611,0.2704,0.2728,0.2811,0.2834,0.2847,0.2889,0.283,0.2956,0.2968,0.2978,0.3048,0.3066,0.2852,0.2852,0.2852,0.2852,0,0.2317,0.2343,0.2356,0.2411,0.245,0.2475,0.254,0.2581,0.2606,0.2641,0.2719,0.2762,0.2821,0.2847,0.2857,0.2953,0.2959,0.2953,0.293,0.2995,0.3065,0.3084,0.2856,0.2855,0.2854,0.2854,0,0,0.2234,0.2334,0.2336,0.2369,0.2445,0.248,0.2541,0.2614,0.2664,0.2714,0.2778,0.2852,0.2878,0.2908,0.2942,0.3006,0.3125,0.301,0.3013,0.3072,0.3305,0.3369,0.3395,0.3145,0.3148,0.3151,0.3331,0,0.2211,0.2268,0.2322,0.237,0.2408,0.2486,0.2539,0.2618,0.2688,0.2767,0.2837,0.2907,0.2904,0.2946,0.3012,0.3093,0.3172,0.3077,0.3238,0.3243,0.3286,0.3418,0.3513,0.3687,0.3348,0.3351,0.3353,0,0.2184,0.2237,0.2286,0.2374,0.2396,0.2434,0.2551,0.2608,0.274,0.28,0.2891,0.2945,0.3054,0.3037,0.3211,0.3152,0.3231,0.3289,0.3297,0.3348,0.3341,0.3565,0.3733,0.3618,0.3381,0.3379,0.3377,0,0.2117,0.2199,0.2241,0.2276,0.2392,0.243,0.2485,0.2613,0.2682,0.283,0.29,0.3021,0.3098,0.3204,0.3325,0.3281,0.3516,0.3473,0.3609,0.3613,0.3721,0.373,0.3789,0.3609,0.3609,0.3608,0.3608,0,0.2074,0.2105,0.222,0.2252,0.2298,0.2395,0.2461,0.2552,0.2693,0.2794,0.2906,0.3016,0.3144,0.3287,0.3371,0.3568,0.3567,0.3646,0.3681,0.3741,0.375,0.3671,0.3522,0.3615,0.3614,0.3612,0.3611,0,0.2001,0.2074,0.2124,0.2239,0.2269,0.2306,0.2421,0.2498,0.2636,0.2779,0.2831,0.3038,0.3248,0.3388,0.3591,0.365,0.3733,0.3877,0.3936,0.3975,0.3964,0.3813,0.3697,0.3591,0.4056,0.4059,0.4061,0,0.1978,0.2001,0.2092,0.2117,0.2166,0.2235,0.2296,0.2447,0.2546,0.2802,0.2879,0.3123,0.3313,0.3642,0.3855,0.4074,0.3856,0.4224,0.4152,0.4011,0.3869,0.3587,0.3482,0.4322,0.4326,0.433,0.4333,0,0.1926,0.1949,0.1996,0.2043,0.2099,0.2164,0.2266,0.2345,0.2559,0.2724,0.2985,0.3161,0.3543,0.3836,0.4114,0.4259,0.4037,0.4302,0.4163,0.4095,0.3787,0.3687,0.4123,0.4365,0.4361,0.4359,0.4357,0.4356,0.187,0.1873,0.1922,0.1967,0.2021,0.2101,0.2154,0.2324,0.2506,0.2783,0.2988,0.3274,0.3715,0.4166,0.4292,0.4544,0.4258,0.4485,0.4324,0.4057,0.3912,0.4407,0.467,0.4668,0.4667,0.4666,0.4665,0,0.1802,0.1821,0.1848,0.1899,0.1935,0.1994,0.2146,0.2235,0.2451,0.2762,0.302,0.35,0.3888,0.4233,0.4655,0.4576,0.4397,0.4434,0.4076,0.3977,0.4506,0.4482,0.4708,0.4708,0.4708,0.4708,0.4708,0.4708,0.1768,0.1768,0.1792,0.1817,0.1851,0.1911,0.1993,0.2167,0.2383,0.2758,0.3047,0.3283,0.3742,0.422,0.4418,0.4424,0.4021,0.3929,0.3674,0.4093,0.4084,0.4075,0.4022,0.4148,0.4147,0.3168,0.316,0.3154]},{"header":{"parameterUnit":"m.s-1","parameterCategory":2,"la1":30.2991,"la2":30.254,"lo1":-89.0895,"lo2":-89.0444,"dy":0.0017,"dx":0.0017,"nx":28,"ny":28,"refTime":"2023-04-01T21:00:00:Z","depth":"0","parameterNumber":3,"parameterNumberName":"V-component_of_CURRENTS"},"data":[0,0,0,0,0,0,0,0,0,0,0,0,0,0,0,0,0,0,0,0,0,0,0,0,0,0,0,0,0,0,0,0,0,0,0,0,0,0,0,0,0,0,0,0,0,0,0,0,0,0,0,0,0,0,0,0,0,0,-0.1326,-0.1327,0,-0.1322,-0.1321,-0.1321,-0.1325,-0.1325,-0.1326,-0.1326,-0.1327,-0.1327,-0.1326,0,0,0,0,0,0,0,0,0,0,0,0,0,-0.1337,-0.1336,-0.1326,-0.1327,-0.1327,-0.1322,-0.1321,-0.1321,-0.1325,-0.1325,-0.1326,-0.1326,-0.1327,-0.1327,-0.1326,0,0,0,0,0,0,0,0,0,0,0,0,0,-0.1329,-0.1336,-0.1326,-0.133,-0.1331,-0.1322,-0.1321,-0.1321,-0.1325,-0.1325,-0.1326,-0.1326,-0.1327,-0.1327,-0.1326,-0.131,0,0,-0.1324,-0.1324,0,0,0,0,0,0,0,0,-0.133,-0.1328,-0.1329,-0.133,-0.133,-0.1327,-0.1325,-0.1319,-0.1324,-0.1324,-0.1326,-0.1327,-0.1329,-0.1328,-0.1322,-0.131,-0.131,-0.1324,-0.1324,-0.1324,-0.1324,0,0,0,0,0,0,0,-0.133,-0.1329,-0.1322,-0.133,-0.133,-0.1332,-0.1331,-0.1324,-0.1321,-0.1324,-0.1325,-0.1329,-0.1329,-0.1322,-0.1322,-0.131,-0.1324,-0.1324,-0.1324,-0.1323,-0.1297,-0.1296,0,0,0,0,0,0,-0.1336,-0.1329,-0.1322,-0.1322,-0.1335,-0.1331,-0.133,-0.1325,-0.1321,-0.1321,-0.1328,-0.1329,-0.1323,-0.1322,-0.1322,-0.1306,-0.1324,-0.1323,-0.1323,-0.1297,-0.1297,-0.1296,0,0,0,0,0,0,-0.1336,-0.1335,-0.1322,-0.1328,-0.1327,-0.1331,-0.1325,-0.1325,-0.1319,-0.1324,-0.1325,-0.1324,-0.1323,-0.1323,-0.1311,-0.1306,-0.1323,-0.1323,-0.1297,-0.1297,-0.1296,-0.1273,0,0,0,0,0,0,-0.1336,-0.1334,-0.133,-0.1328,-0.1327,-0.131,-0.1324,-0.1324,-0.1322,-0.1323,-0.132,-0.1321,-0.1324,-0.1312,-0.131,-0.1306,-0.1322,-0.1298,-0.1297,-0.1297,-0.1274,-0.1272,-0.1269,0,0,0,0,0,-0.1336,-0.1325,-0.133,-0.1329,-0.1321,-0.131,-0.1309,-0.1312,-0.1322,-0.1311,-0.1312,-0.1321,-0.1307,-0.131,-0.1309,-0.1305,-0.1298,-0.1297,-0.1297,-0.1275,-0.1272,-0.1269,0,0,0,0,0,0,-0.132,-0.1324,-0.133,-0.1318,-0.1314,-0.1312,-0.1305,-0.131,-0.1301,-0.1302,-0.131,-0.131,-0.1302,-0.1303,-0.1307,-0.1296,-0.1307,-0.1305,-0.1291,-0.1288,-0.1286,-0.1275,-0.1322,0,0,0,0,0,-0.1317,-0.1308,-0.1314,-0.13,-0.1303,-0.1304,-0.1301,-0.13,-0.1296,-0.1293,-0.1293,-0.1294,-0.1296,-0.1292,-0.129,-0.1276,-0.131,-0.1275,-0.1273,-0.1271,-0.1261,-0.1328,-0.1331,-0.1293,-0.1293,-0.1293,0,0,-0.1298,-0.1306,-0.1295,-0.1296,-0.1296,-0.1282,-0.1302,-0.1291,-0.1272,-0.1294,-0.1269,-0.1285,-0.1291,-0.128,-0.1276,-0.128,-0.1298,-0.1269,-0.1268,-0.1259,-0.1328,-0.1332,-0.1335,-0.1293,-0.1293,-0.1293,0,0,-0.1265,-0.1273,-0.1259,-0.1261,-0.1265,-0.1261,-0.1259,-0.1256,-0.125,-0.1228,-0.1249,-0.1262,-0.1245,-0.126,-0.1263,-0.1246,-0.1286,-0.1246,-0.1221,-0.1286,-0.129,-0.1294,-0.1339,-0.1348,-0.1242,-0.1242,-0.1242,0,-0.1249,-0.1235,-0.125,-0.1246,-0.1239,-0.1252,-0.1229,-0.1221,-0.1211,-0.1203,-0.1213,-0.1226,-0.1236,-0.1244,-0.1236,-0.1242,-0.1279,-0.1232,-0.1285,-0.1289,-0.1294,-0.134,-0.1349,-0.1241,-0.1241,-0.1241,-0.1241,0,-0.1212,-0.1202,-0.1195,-0.1191,-0.1181,-0.1165,-0.1163,-0.1145,-0.1143,-0.1144,-0.115,-0.1179,-0.1191,-0.1201,-0.1206,-0.1241,-0.1257,-0.128,-0.1295,-0.1297,-0.1344,-0.1354,-0.1239,-0.1239,-0.124,-0.124,0,0,-0.1179,-0.1169,-0.1171,-0.1156,-0.1153,-0.1137,-0.1103,-0.1081,-0.1061,-0.1077,-0.1074,-0.1096,-0.1135,-0.1143,-0.1179,-0.1228,-0.1293,-0.1258,-0.1262,-0.1307,-0.1429,-0.1418,-0.1428,-0.1333,-0.1334,-0.1336,-0.1448,0,-0.1147,-0.1118,-0.1125,-0.1082,-0.1059,-0.106,-0.1023,-0.1006,-0.1002,-0.1002,-0.1059,-0.1069,-0.1108,-0.1124,-0.1184,-0.1269,-0.1319,-0.1259,-0.1415,-0.1419,-0.1414,-0.1439,-0.1284,-0.1369,-0.1458,-0.146,-0.1461,0,-0.1121,-0.1099,-0.1046,-0.1016,-0.1008,-0.0981,-0.0934,-0.0909,-0.0914,-0.0916,-0.096,-0.1007,-0.1084,-0.1119,-0.1278,-0.1242,-0.1323,-0.1392,-0.1399,-0.1401,-0.1428,-0.1382,-0.1385,-0.1453,-0.1478,-0.1476,-0.1475,0,-0.1079,-0.1056,-0.1004,-0.0994,-0.095,-0.0922,-0.0905,-0.088,-0.0851,-0.0879,-0.087,-0.0981,-0.1034,-0.1166,-0.1297,-0.1298,-0.1473,-0.1499,-0.1564,-0.1564,-0.1467,-0.1455,-0.1554,-0.1605,-0.1604,-0.1604,-0.1604,0,-0.1046,-0.1005,-0.098,-0.0946,-0.0879,-0.0881,-0.0825,-0.0804,-0.0799,-0.0771,-0.084,-0.0852,-0.1048,-0.1163,-0.1295,-0.146,-0.1481,-0.1562,-0.1597,-0.1453,-0.1439,-0.1521,-0.1619,-0.1608,-0.1607,-0.1606,-0.1606,0,-0.0991,-0.0974,-0.0902,-0.0858,-0.0847,-0.0795,-0.0767,-0.0731,-0.0725,-0.0697,-0.0704,-0.0783,-0.092,-0.1098,-0.1317,-0.1444,-0.1645,-0.1649,-0.1455,-0.1466,-0.1597,-0.1699,-0.1875,-0.1932,-0.1757,-0.1757,-0.1758,0,-0.0939,-0.0905,-0.0836,-0.0791,-0.0766,-0.0721,-0.0682,-0.0677,-0.0658,-0.0645,-0.0637,-0.0734,-0.0777,-0.1082,-0.1292,-0.1517,-0.1642,-0.1566,-0.1543,-0.1586,-0.1728,-0.1785,-0.1825,-0.1404,-0.1401,-0.1399,-0.1398,0,-0.0843,-0.0827,-0.0784,-0.0697,-0.0644,-0.0594,-0.0569,-0.0534,-0.0529,-0.0492,-0.0475,-0.0497,-0.0728,-0.0864,-0.1163,-0.1334,-0.1594,-0.1533,-0.1628,-0.1504,-0.1524,-0.1598,-0.1348,-0.1379,-0.1381,-0.1382,-0.1383,-0.1384,-0.0769,-0.0728,-0.0682,-0.0604,-0.0539,-0.0462,-0.0415,-0.0391,-0.0319,-0.0214,-0.0296,-0.0186,-0.0408,-0.0765,-0.1065,-0.1378,-0.149,-0.1444,-0.1578,-0.1641,-0.1656,-0.1365,-0.1411,-0.1413,-0.1414,-0.1416,-0.1417,0,-0.0668,-0.0659,-0.0594,-0.0492,-0.0409,-0.0398,-0.0331,-0.0262,-0.0157,0.0007,0.007,0.021,-0.0078,-0.0435,-0.0879,-0.1264,-0.1435,-0.15,-0.1514,-0.1569,-0.1317,-0.1254,-0.1206,-0.1206,-0.1206,-0.1206,-0.1206,-0.1206,-0.0608,-0.0553,-0.0541,-0.0391,-0.0328,-0.0197,-0.0143,-0.0021,0.012,0.044,0.0688,0.0812,0.0715,-0.028,-0.1,-0.1285,-0.1567,-0.1659,-0.1888,-0.1654,-0.1657,-0.1659,-0.1618,-0.1647,-0.1648,-0.1974,-0.1977,-0.198]}],[{"header":{"parameterUnit":"m.s-1","parameterCategory":2,"la1":30.2991,"la2":30.254,"lo1":-89.0895,"lo2":-89.0444,"dy":0.0017,"dx":0.0017,"nx":28,"ny":28,"refTime":"2023-04-01T21:00:00:Z","depth":"2","parameterNumber":2,"parameterNumberName":"U-component_of_CURRENTS"},"data":[0,0,0,0,0,0,0,0,0,0,0,0,0,0,0,0,0,0,0,0,0,0,0,0,0,0,0,0,0,0,0,0,0,0,0,0,0,0,0,0,0,0,0,0,0,0,0,0,0,0,0,0,0,0,0,0,0,0,0.3202,0.3203,0,0.3274,0.3275,0.3275,0.3268,0.3268,0.3267,0.3266,0.3314,0.3316,0.3318,0,0,0,0,0,0,0,0,0,0,0,0,0,0.3116,0.3117,0.3202,0.3204,0.3205,0.3274,0.3275,0.3275,0.3269,0.3268,0.3267,0.3266,0.3313,0.3316,0.3318,0,0,0,0,0,0,0,0,0,0,0,0,0,0.3163,0.3117,0.3202,0.3212,0.3214,0.3274,0.3275,0.3275,0.3269,0.3268,0.3266,0.3265,0.3313,0.3315,0.3318,0.3361,0,0,0.3328,0.3329,0,0,0,0,0,0,0,0,0.3161,0.3166,0.321,0.3212,0.3214,0.3264,0.3262,0.3304,0.3269,0.3244,0.3266,0.3265,0.3298,0.3302,0.3314,0.3363,0.3365,0.3328,0.333,0.3331,0.3332,0,0,0,0,0,0,0,0.3157,0.3163,0.3227,0.3211,0.3214,0.3233,0.3237,0.327,0.3274,0.3246,0.3247,0.3261,0.3299,0.3311,0.3315,0.3366,0.3328,0.3331,0.3332,0.3334,0.3476,0.3478,0,0,0,0,0,0,0.3154,0.316,0.3225,0.323,0.3188,0.3235,0.324,0.3246,0.3274,0.3278,0.3262,0.326,0.3306,0.3311,0.3317,0.3403,0.3331,0.3334,0.3336,0.3474,0.3477,0.3479,0,0,0,0,0,0,0.3152,0.3159,0.3222,0.32,0.3209,0.3238,0.3245,0.3248,0.3268,0.3287,0.3289,0.3278,0.3306,0.3312,0.3356,0.3403,0.3335,0.3338,0.3472,0.3475,0.3478,0.3554,0,0,0,0,0,0,0.3149,0.3157,0.3166,0.3199,0.3211,0.3257,0.3247,0.3251,0.3279,0.3278,0.3302,0.3305,0.3305,0.3352,0.3359,0.3406,0.334,0.347,0.3474,0.3477,0.3549,0.3559,0.3567,0,0,0,0,0,0.3145,0.3156,0.3165,0.3174,0.3219,0.3258,0.3266,0.328,0.3281,0.3292,0.3314,0.3304,0.338,0.3356,0.3364,0.3413,0.3468,0.3472,0.3477,0.3544,0.3557,0.3567,0,0,0,0,0,0,0.3124,0.3159,0.3168,0.319,0.3224,0.3258,0.3273,0.3291,0.3319,0.3316,0.3331,0.3336,0.3395,0.3393,0.3366,0.3465,0.3423,0.3429,0.3472,0.3483,0.3493,0.3485,0.3343,0,0,0,0,0,0.3126,0.3141,0.318,0.3199,0.3214,0.3249,0.327,0.3282,0.3311,0.3322,0.3341,0.337,0.3421,0.3441,0.347,0.3525,0.3547,0.3561,0.3571,0.3579,0.3579,0.3669,0.3687,0.3494,0.3494,0.3494,0,0,0.3125,0.3146,0.3156,0.3197,0.322,0.3253,0.3257,0.3287,0.3322,0.3325,0.3369,0.3404,0.3443,0.3505,0.3531,0.3509,0.3647,0.3585,0.3591,0.3587,0.3676,0.3695,0.3711,0.3497,0.3496,0.3496,0,0,0.3128,0.3147,0.316,0.319,0.3231,0.3258,0.3271,0.3311,0.3332,0.3383,0.3409,0.3468,0.3518,0.3569,0.3602,0.3682,0.3696,0.3696,0.374,0.3828,0.3845,0.386,0.3917,0.3937,0.3699,0.3699,0.3699,0,0.3127,0.3147,0.3173,0.3198,0.3223,0.3263,0.3288,0.333,0.338,0.3407,0.3396,0.3519,0.3551,0.3664,0.3697,0.3705,0.3747,0.3694,0.3842,0.3857,0.3871,0.3926,0.3946,0.3703,0.3703,0.3702,0.3702,0,0.3139,0.3162,0.3174,0.3217,0.3251,0.3277,0.3335,0.3372,0.3402,0.3442,0.3536,0.3594,0.3665,0.3703,0.3729,0.3859,0.3855,0.3846,0.3813,0.3895,0.3947,0.3968,0.3709,0.3708,0.3707,0.3706,0,0,0.3109,0.317,0.3172,0.3187,0.3259,0.3278,0.3351,0.3419,0.3463,0.3527,0.3597,0.3713,0.3746,0.3787,0.3844,0.3928,0.4075,0.3937,0.394,0.3993,0.4266,0.4075,0.4078,0.4104,0.4108,0.4111,0.4264,0,0.3107,0.3139,0.3182,0.322,0.3238,0.3302,0.3363,0.3433,0.3495,0.3571,0.3668,0.375,0.3783,0.3832,0.3932,0.4049,0.4131,0.4033,0.4177,0.4181,0.4001,0.4095,0.3605,0.3684,0.4284,0.4287,0.4289,0,0.3097,0.3119,0.3147,0.3206,0.322,0.3254,0.3339,0.3402,0.3533,0.3584,0.3696,0.3771,0.3939,0.393,0.4171,0.4115,0.4195,0.4266,0.4273,0.4077,0.4027,0.3698,0.3698,0.4322,0.432,0.4317,0.4315,0,0.3033,0.309,0.3104,0.3125,0.3206,0.3229,0.3279,0.3393,0.3452,0.3598,0.3656,0.3844,0.3937,0.4097,0.4249,0.4235,0.4478,0.4469,0.4366,0.4354,0.395,0.3893,0.4613,0.4613,0.4613,0.4612,0.4612,0,0.3006,0.3014,0.3066,0.307,0.309,0.3166,0.3216,0.3295,0.3422,0.3498,0.3655,0.3754,0.3987,0.4146,0.4279,0.4379,0.4507,0.4386,0.4387,0.396,0.3906,0.446,0.444,0.4618,0.4617,0.4616,0.4615,0,0.2935,0.2977,0.2986,0.3043,0.3057,0.3066,0.3159,0.3202,0.3334,0.3444,0.3496,0.3723,0.3933,0.4127,0.438,0.4377,0.4512,0.4501,0.3966,0.3899,0.4325,0.4308,0.4424,0.4419,0.4415,0.4411,0.4408,0,0.2904,0.2895,0.2932,0.2927,0.2946,0.2978,0.3005,0.3138,0.3194,0.3418,0.3464,0.3691,0.3811,0.408,0.4022,0.414,0.445,0.386,0.373,0.432,0.4311,0.4301,0.429,0.3243,0.323,0.322,0.3212,0,0.2821,0.283,0.2832,0.2821,0.2829,0.2852,0.2902,0.2946,0.3114,0.3221,0.3373,0.3482,0.3564,0.3438,0.3532,0.3562,0.3798,0.3655,0.4434,0.335,0.3213,0.3202,0.3229,0.3121,0.313,0.3137,0.3142,0.3145,0.274,0.2716,0.2706,0.2697,0.2699,0.2701,0.2705,0.2784,0.2868,0.2916,0.3116,0.3093,0.3005,0.2835,0.2868,0.2901,0.3137,0.3134,0.3163,0.3204,0.3023,0.2884,0.2696,0.2702,0.2708,0.2713,0.2717,0,0.2611,0.2597,0.258,0.2556,0.2516,0.2564,0.2608,0.2581,0.2631,0.2592,0.2624,0.2262,0.2147,0.227,0.2029,0.205,0.2008,0.2185,0.2098,0.218,0.2255,0.2029,0.1438,0.1437,0.1436,0.1435,0,0,0.2539,0.2476,0.2476,0.2375,0.2357,0.2284,0.2293,0.226,0.2212,0.2021,0.1877,0.1791,0.194,0.1535,0.1518,0.1496,0.1851,0.145,0.2421,0.2379,0.2454,0.2694,0.2422,0,0,0,0,0]},{"header":{"parameterUnit":"m.s-1","parameterCategory":2,"la1":30.2991,"la2":30.254,"lo1":-89.0895,"lo2":-89.0444,"dy":0.0017,"dx":0.0017,"nx":28,"ny":28,"refTime":"2023-04-01T21:00:00:Z","depth":"2","parameterNumber":3,"parameterNumberName":"V-component_of_CURRENTS"},"data":[0,0,0,0,0,0,0,0,0,0,0,0,0,0,0,0,0,0,0,0,0,0,0,0,0,0,0,0,0,0,0,0,0,0,0,0,0,0,0,0,0,0,0,0,0,0,0,0,0,0,0,0,0,0,0,0,0,0,0.0473,0.0472,0,0.0381,0.038,0.0379,0.0295,0.0294,0.0293,0.0292,0.0168,0.0165,0.0163,0,0,0,0,0,0,0,0,0,0,0,0,0,0.057,0.0569,0.0473,0.0472,0.0471,0.0381,0.038,0.0379,0.0295,0.0294,0.0292,0.0291,0.0168,0.0166,0.0163,0,0,0,0,0,0,0,0,0,0,0,0,0,0.0508,0.0568,0.0473,0.0418,0.0412,0.0381,0.038,0.0378,0.0295,0.0294,0.0292,0.0291,0.0169,0.0166,0.0162,0.0173,0,0,0.0152,0.015,0,0,0,0,0,0,0,0,0.0512,0.0505,0.0427,0.0422,0.0415,0.0347,0.0368,0.0308,0.0296,0.034,0.0292,0.029,0.0226,0.0217,0.0205,0.0167,0.0161,0.0151,0.0149,0.0148,0.0147,0,0,0,0,0,0,0,0.0516,0.0508,0.0437,0.0426,0.0418,0.0395,0.0385,0.0357,0.0293,0.0336,0.033,0.0319,0.0222,0.0208,0.0201,0.016,0.0152,0.0148,0.0146,0.0145,0.0101,0.0101,0,0,0,0,0,0,0.0529,0.0513,0.044,0.0434,0.046,0.0395,0.0383,0.0371,0.0293,0.028,0.0321,0.0316,0.0215,0.0205,0.0196,0.0218,0.0148,0.0145,0.0143,0.01,0.0101,0.0102,0,0,0,0,0,0,0.0531,0.0523,0.0444,0.0471,0.0459,0.0395,0.0382,0.037,0.035,0.0282,0.0268,0.0311,0.0213,0.0201,0.0174,0.0212,0.0143,0.014,0.0099,0.01,0.0101,0.0253,0,0,0,0,0,0,0.0534,0.0525,0.0527,0.0472,0.0458,0.0443,0.0383,0.0369,0.0346,0.0338,0.027,0.0257,0.0211,0.018,0.0171,0.0206,0.0137,0.0097,0.0099,0.0101,0.0247,0.0259,0.027,0,0,0,0,0,0.0538,0.0558,0.0527,0.0519,0.046,0.0444,0.0436,0.0385,0.0347,0.0357,0.0301,0.0259,0.0184,0.0178,0.0167,0.0202,0.0097,0.0099,0.0101,0.0241,0.0257,0.027,0,0,0,0,0,0,0.0607,0.0549,0.0515,0.0516,0.0486,0.043,0.0434,0.0393,0.0357,0.0343,0.0272,0.0257,0.0244,0.02,0.0195,0.0191,0.0133,0.0133,0.0244,0.0257,0.0269,0.0305,0.0134,0,0,0,0,0,0.0622,0.0615,0.056,0.0562,0.055,0.0491,0.0477,0.0441,0.0398,0.038,0.0328,0.0276,0.0247,0.0233,0.0193,0.0199,0.0156,0.0211,0.0223,0.0233,0.0253,0.0222,0.0234,0.0109,0.0108,0.0108,0,0,0.0649,0.0616,0.0612,0.0576,0.0545,0.0552,0.0479,0.0467,0.0473,0.0374,0.0366,0.0312,0.0253,0.0255,0.0247,0.0224,0.0245,0.0236,0.0245,0.026,0.0225,0.0238,0.0249,0.011,0.011,0.0109,0,0,0.0707,0.0671,0.0685,0.0668,0.0629,0.0601,0.0601,0.0547,0.0524,0.0513,0.0441,0.0415,0.0364,0.0339,0.0318,0.0371,0.03,0.0349,0.045,0.0421,0.0431,0.044,0.0403,0.0407,0.0365,0.0365,0.0365,0,0.0741,0.0745,0.0692,0.0704,0.0704,0.0631,0.0659,0.0635,0.0578,0.0578,0.053,0.0466,0.0413,0.0426,0.0442,0.0403,0.0364,0.0408,0.0439,0.0447,0.0453,0.0413,0.0415,0.0373,0.0372,0.0371,0.037,0,0.0805,0.0811,0.0825,0.0813,0.0813,0.0826,0.0787,0.0782,0.0742,0.0715,0.0704,0.0628,0.0595,0.0574,0.0527,0.0552,0.0501,0.0453,0.0413,0.0476,0.0428,0.0428,0.0383,0.0381,0.0378,0.0377,0,0,0.0874,0.087,0.0873,0.0889,0.0871,0.0879,0.0905,0.0913,0.0939,0.088,0.091,0.0853,0.0799,0.0772,0.0701,0.068,0.0688,0.0599,0.0594,0.0579,0.0616,0.0547,0.054,0.0642,0.0643,0.0644,0.0566,0,0.0939,0.0987,0.0971,0.1033,0.1059,0.1024,0.106,0.1058,0.1042,0.1053,0.0984,0.0973,0.0878,0.0861,0.083,0.0726,0.0695,0.0713,0.0543,0.0538,0.0483,0.0541,0.045,0.037,0.0565,0.0565,0.0565,0,0.101,0.103,0.1096,0.114,0.1151,0.118,0.1229,0.1252,0.1254,0.124,0.122,0.1152,0.112,0.1015,0.0893,0.0907,0.0779,0.0688,0.0681,0.0568,0.047,0.0335,0.0362,0.0565,0.0565,0.0565,0.0565,0,0.1081,0.1127,0.1183,0.1194,0.1228,0.1261,0.1286,0.1308,0.1343,0.1353,0.1373,0.1312,0.1273,0.1139,0.0949,0.0922,0.08,0.0731,0.0546,0.0539,0.0405,0.0384,0.0635,0.0635,0.0635,0.0635,0.0636,0,0.1159,0.1204,0.1216,0.1245,0.1324,0.1329,0.1415,0.1432,0.147,0.1529,0.1464,0.1487,0.1299,0.12,0.1016,0.0798,0.0846,0.0582,0.0524,0.0453,0.0439,0.0556,0.0548,0.0632,0.0633,0.0634,0.0634,0,0.1222,0.123,0.1295,0.1337,0.1355,0.141,0.148,0.1543,0.1571,0.1646,0.1652,0.1617,0.1503,0.1301,0.1082,0.0876,0.0678,0.0573,0.0502,0.0438,0.0417,0.0417,0.0375,0.0372,0.037,0.0368,0.0366,0,0.1253,0.129,0.1351,0.1383,0.1398,0.147,0.1526,0.1581,0.1649,0.1726,0.177,0.1701,0.1669,0.1343,0.095,0.0621,0.0651,0.0334,0.0262,0.0447,0.0395,0.0399,0.0403,0.0137,0.0134,0.0131,0.0129,0,0.1306,0.1322,0.1365,0.1432,0.1489,0.1572,0.1653,0.1729,0.1806,0.1889,0.1973,0.1964,0.1617,0.123,0.0766,0.055,0.0387,0.0264,0.0484,0.0223,0.0218,0.0168,0.0181,0.0104,0.0106,0.0108,0.0109,0.011,0.1325,0.1361,0.1406,0.1474,0.1543,0.1647,0.1739,0.1854,0.1993,0.2069,0.2081,0.1963,0.1484,0.0794,0.0478,0.0143,0.0186,0.0032,0.0043,0.0056,0.0049,0.0041,-0.0109,-0.0108,-0.0107,-0.0106,-0.0105,0,0.1321,0.1366,0.1439,0.152,0.1601,0.1637,0.1801,0.1933,0.2119,0.2028,0.2078,0.1538,0.1108,0.0678,0.0084,-0.0224,-0.0219,-0.0247,-0.0214,-0.019,-0.0169,-0.0184,-0.0406,-0.0407,-0.0408,-0.0408,0,0,0.1313,0.1367,0.1412,0.1534,0.16,0.174,0.1843,0.2066,0.2071,0.1995,0.1755,0.1497,0.097,0.0449,0.0076,-0.0166,-0.0089,-0.0191,0.0063,0.0164,0.019,-0.0014,-0.0013,0,0,0,0,0]}],[{"header":{"parameterUnit":"m.s-1","parameterCategory":2,"la1":30.2991,"la2":30.254,"lo1":-89.0895,"lo2":-89.0444,"dy":0.0017,"dx":0.0017,"nx":28,"ny":28,"refTime":"2023-04-01T21:00:00:Z","depth":"4","parameterNumber":2,"parameterNumberName":"U-component_of_CURRENTS"},"data":[0,0,0,0,0,0,0,0,0,0,0,0,0,0,0,0,0,0,0,0,0,0,0,0,0,0,0,0,0,0,0,0,0,0,0,0,0,0,0,0,0,0,0,0,0,0,0,0,0,0,0,0,0,0,0,0,0,0,0.0601,0.0602,0,0.0677,0.0678,0.0678,0.074,0.0741,0.0743,0.0744,0.0918,0.0922,0.0925,0,0,0,0,0,0,0,0,0,0,0,0,0,0.0577,0.0576,0.06,0.0602,0.0604,0.0677,0.0678,0.0678,0.074,0.0741,0.0743,0.0744,0.0917,0.0921,0.0926,0,0,0,0,0,0,0,0,0,0,0,0,0,0.0608,0.0576,0.06,0.0648,0.0653,0.0677,0.0678,0.0678,0.074,0.0741,0.0743,0.0745,0.0916,0.0921,0.0926,0.0923,0,0,0.0942,0.0945,0,0,0,0,0,0,0,0,0.0606,0.0608,0.0639,0.0645,0.0651,0.0707,0.0734,0.0767,0.0739,0.07,0.0744,0.0746,0.0859,0.0869,0.087,0.0931,0.0939,0.0943,0.0946,0.0948,0.095,0,0,0,0,0,0,0,0.0604,0.0606,0.0625,0.0641,0.0648,0.069,0.0695,0.074,0.0766,0.0704,0.071,0.0728,0.0863,0.0864,0.0875,0.0941,0.0943,0.0948,0.0951,0.0953,0.1229,0.1233,0,0,0,0,0,0,0.0601,0.0603,0.0622,0.0628,0.0639,0.0689,0.0694,0.0682,0.0763,0.0779,0.0726,0.0731,0.0854,0.0868,0.0881,0.1082,0.0948,0.0953,0.0956,0.1225,0.123,0.1234,0,0,0,0,0,0,0.0599,0.06,0.0619,0.0624,0.063,0.0688,0.0673,0.0682,0.0738,0.0781,0.0797,0.078,0.0856,0.0874,0.0994,0.1082,0.0956,0.0961,0.122,0.1226,0.1232,0.1357,0,0,0,0,0,0,0.0597,0.0598,0.0603,0.0622,0.063,0.0684,0.0672,0.0683,0.0746,0.0754,0.0831,0.0845,0.0859,0.0986,0.0999,0.1087,0.0965,0.1215,0.1223,0.123,0.1348,0.1367,0.1383,0,0,0,0,0,0.0596,0.0621,0.0601,0.0606,0.0628,0.0687,0.0696,0.0739,0.0748,0.0791,0.0854,0.0846,0.1045,0.0994,0.1008,0.11,0.1211,0.1221,0.123,0.134,0.1363,0.1383,0,0,0,0,0,0,0.0629,0.0629,0.061,0.0634,0.0672,0.0702,0.0757,0.0766,0.0841,0.0857,0.0893,0.0914,0.1053,0.1059,0.1001,0.1204,0.1129,0.1142,0.1208,0.123,0.1248,0.1238,0.0969,0,0,0,0,0,0.0627,0.063,0.065,0.0668,0.0701,0.0727,0.0761,0.0776,0.0837,0.0871,0.0948,0.1019,0.109,0.1148,0.1209,0.1315,0.1248,0.1387,0.1405,0.1419,0.1424,0.1369,0.138,0.1265,0.1265,0.1265,0,0,0.0621,0.0643,0.0631,0.0674,0.0709,0.076,0.0754,0.0819,0.0887,0.0879,0.1042,0.1087,0.1132,0.126,0.1323,0.1286,0.1424,0.1431,0.1443,0.1439,0.1379,0.1389,0.1398,0.1271,0.127,0.1269,0,0,0.0638,0.0663,0.0668,0.073,0.0795,0.0815,0.0847,0.0918,0.0994,0.1121,0.1136,0.1221,0.1373,0.14,0.1431,0.1578,0.1514,0.1636,0.1726,0.1673,0.168,0.1686,0.1623,0.1622,0.1649,0.1649,0.165,0,0.0645,0.0664,0.0688,0.0756,0.0819,0.0851,0.0903,0.0983,0.1093,0.1173,0.1206,0.1392,0.1426,0.1529,0.1602,0.1614,0.158,0.1636,0.169,0.1694,0.1697,0.1631,0.1628,0.1656,0.1656,0.1655,0.1654,0,0.0683,0.0718,0.0767,0.0832,0.089,0.0972,0.106,0.1173,0.1269,0.1334,0.151,0.1558,0.1663,0.17,0.1711,0.1783,0.1749,0.1706,0.1619,0.1715,0.1642,0.1636,0.1667,0.1664,0.1662,0.166,0,0,0.0656,0.0759,0.0784,0.0814,0.0957,0.0991,0.1157,0.1289,0.1402,0.1543,0.1676,0.181,0.1841,0.1876,0.1889,0.1864,0.1862,0.1831,0.1825,0.1741,0.1757,0.1629,0.1609,0.1839,0.1839,0.1839,0.1697,0,0.0693,0.0783,0.0847,0.0938,0.0985,0.1113,0.1265,0.1388,0.1533,0.1688,0.1758,0.1895,0.191,0.1972,0.1957,0.1888,0.1855,0.1904,0.1702,0.1695,0.1545,0.1601,0.1838,0.1692,0.169,0.1689,0.1688,0,0.0727,0.0777,0.0874,0.0981,0.1027,0.1134,0.1353,0.1501,0.1723,0.1831,0.1962,0.2014,0.207,0.2037,0.1962,0.2007,0.1913,0.1829,0.182,0.1648,0.1556,0.1578,0.1676,0.1677,0.1678,0.1679,0.168,0,0.0678,0.0795,0.0868,0.093,0.1078,0.1211,0.1356,0.1586,0.1717,0.1954,0.2004,0.21,0.2128,0.2053,0.1922,0.1967,0.1751,0.1767,0.1549,0.1538,0.1634,0.1629,0.167,0.167,0.1671,0.1671,0.1671,0,0.0712,0.0754,0.0881,0.0943,0.109,0.1224,0.145,0.1625,0.1829,0.1903,0.2097,0.205,0.2134,0.2022,0.1917,0.1696,0.1741,0.1563,0.1493,0.1696,0.17,0.1629,0.1626,0.1666,0.1667,0.1668,0.1669,0,0.0652,0.0735,0.0804,0.0987,0.1083,0.1217,0.1506,0.1639,0.185,0.1933,0.1992,0.2039,0.1899,0.1878,0.1706,0.1656,0.1463,0.1352,0.155,0.1493,0.1304,0.131,0.117,0.1164,0.1159,0.1155,0.1152,0,0.0636,0.0671,0.0847,0.0942,0.107,0.1295,0.1463,0.1684,0.1731,0.1807,0.1741,0.1724,0.1708,0.1388,0.1375,0.1227,0.1187,0.1173,0.1302,0.1307,0.1253,0.1267,0.1279,0.1144,0.1143,0.1142,0.114,0,0.0589,0.0666,0.0742,0.0927,0.11,0.1244,0.1436,0.1398,0.1548,0.1698,0.1506,0.1471,0.1297,0.1214,0.1142,0.0997,0.1262,0.1124,0.1137,0.1257,0.1274,0.1229,0.1246,0.1124,0.1126,0.1128,0.1129,0,0.0577,0.061,0.0728,0.0887,0.1067,0.1118,0.1229,0.1224,0.1276,0.1306,0.1167,0.113,0.1179,0.1068,0.0904,0.0878,0.0902,0.0969,0.099,0.1009,0.1028,0.1031,0.0738,0,0,0,0,0,0.0556,0.0574,0.0692,0.0793,0.0956,0.1054,0.1155,0.1209,0.1219,0.1071,0.1145,0.0965,0.0878,0.0809,0.0745,0.0796,0.088,0.0724,0.0963,0.1031,0.105,0.1093,0,0,0,0,0,0,0.0523,0.0603,0.0626,0.0683,0.075,0.087,0.0917,0.094,0.0825,0.0873,0.0782,0.0954,0.0812,0.0893,0.0733,0.0732,0.0879,0.0739,0.0739,0.102,0.1038,0.1053,0.1104,0,0,0,0,0]},{"header":{"parameterUnit":"m.s-1","parameterCategory":2,"la1":30.2991,"la2":30.254,"lo1":-89.0895,"lo2":-89.0444,"dy":0.0017,"dx":0.0017,"nx":28,"ny":28,"refTime":"2023-04-01T21:00:00:Z","depth":"4","parameterNumber":3,"parameterNumberName":"V-component_of_CURRENTS"},"data":[0,0,0,0,0,0,0,0,0,0,0,0,0,0,0,0,0,0,0,0,0,0,0,0,0,0,0,0,0,0,0,0,0,0,0,0,0,0,0,0,0,0,0,0,0,0,0,0,0,0,0,0,0,0,0,0,0,0,0.0238,0.0238,0,0.0169,0.0168,0.0167,0.0149,0.015,0.015,0.0151,0.0064,0.0061,0.0058,0,0,0,0,0,0,0,0,0,0,0,0,0,0.0268,0.0268,0.0238,0.0238,0.0237,0.0169,0.0168,0.0167,0.0149,0.015,0.0151,0.0151,0.0065,0.0061,0.0058,0,0,0,0,0,0,0,0,0,0,0,0,0,0.0229,0.0268,0.0239,0.0223,0.0221,0.017,0.0168,0.0166,0.0148,0.015,0.0151,0.0152,0.0066,0.0062,0.0057,0.0006,0,0,0.0043,0.0041,0,0,0,0,0,0,0,0,0.0231,0.0228,0.0226,0.0224,0.0222,0.0172,0.0147,0.0113,0.0148,0.0172,0.0151,0.0152,0.01,0.0093,0.0072,0.0002,-0.0002,0.0043,0.004,0.0038,0.0037,0,0,0,0,0,0,0,0.0234,0.023,0.0207,0.0225,0.0223,0.019,0.0186,0.0139,0.0127,0.017,0.0169,0.0168,0.0099,0.0076,0.007,-0.0003,0.0043,0.0039,0.0036,0.0034,-0.0165,-0.0168,0,0,0,0,0,0,0.0254,0.0233,0.0209,0.0205,0.0234,0.0189,0.0185,0.0184,0.0128,0.0122,0.0167,0.0167,0.0084,0.0075,0.0067,-0.0008,0.0038,0.0034,0.0031,-0.0163,-0.0166,-0.0169,0,0,0,0,0,0,0.0255,0.0252,0.0212,0.022,0.0214,0.0189,0.0187,0.0182,0.0169,0.0126,0.0119,0.0161,0.0084,0.0073,0.0015,-0.001,0.0032,0.0028,-0.016,-0.0164,-0.0167,-0.015,0,0,0,0,0,0,0.0256,0.0253,0.0251,0.0222,0.0214,0.0183,0.0186,0.018,0.0167,0.0167,0.0118,0.0111,0.0084,0.0022,0.0011,-0.0016,0.0024,-0.0157,-0.0162,-0.0166,-0.0147,-0.0153,-0.0157,0,0,0,0,0,0.0257,0.0261,0.0252,0.0249,0.0216,0.0183,0.0175,0.0158,0.0166,0.0152,0.0113,0.0113,-0.0017,0.0016,0.0004,-0.0025,-0.0154,-0.016,-0.0166,-0.0145,-0.0152,-0.0157,0,0,0,0,0,0,0.0274,0.0259,0.0248,0.0247,0.0216,0.0182,0.0176,0.0161,0.0118,0.0123,0.0085,0.0073,0.0002,-0.0019,0.0019,-0.0103,-0.0088,-0.0097,-0.0068,-0.0075,-0.008,-0.0045,0.002,0,0,0,0,0,0.0276,0.0274,0.0246,0.0241,0.0236,0.0204,0.0189,0.0173,0.0138,0.0122,0.0083,0.0031,-0.0037,-0.0056,-0.0121,-0.0172,-0.0187,-0.0205,-0.021,-0.0214,-0.0199,-0.0264,-0.0272,-0.0188,-0.0188,-0.0187,0,0,0.0276,0.0273,0.0267,0.0244,0.0227,0.0206,0.0198,0.018,0.0152,0.0117,0.0068,0.0006,-0.0061,-0.0132,-0.0164,-0.0144,-0.0247,-0.0221,-0.0223,-0.0206,-0.0271,-0.0279,-0.0285,-0.0191,-0.0191,-0.019,0,0,0.0276,0.0281,0.0272,0.0257,0.0235,0.0212,0.021,0.017,0.0146,0.0084,0.0039,-0.0028,-0.0114,-0.017,-0.0208,-0.0279,-0.0285,-0.0308,-0.0285,-0.0349,-0.0355,-0.0361,-0.0381,-0.0388,-0.0293,-0.0293,-0.0293,0,0.0274,0.0273,0.0261,0.0255,0.0246,0.022,0.0204,0.0169,0.0106,0.0079,0.0072,-0.0084,-0.0133,-0.0225,-0.025,-0.0286,-0.0308,-0.0247,-0.0351,-0.0357,-0.0363,-0.0382,-0.039,-0.0293,-0.0293,-0.0293,-0.0293,0,0.0271,0.0267,0.0271,0.0253,0.023,0.0223,0.0181,0.0148,0.0119,0.0076,-0.0022,-0.0106,-0.0178,-0.0229,-0.0255,-0.0336,-0.0333,-0.0358,-0.032,-0.0369,-0.0388,-0.0397,-0.0293,-0.0293,-0.0293,-0.0293,0,0,0.028,0.0268,0.0272,0.0264,0.0239,0.0221,0.018,0.0129,0.0115,0.0027,-0.0017,-0.0147,-0.017,-0.0217,-0.0274,-0.0332,-0.0392,-0.0348,-0.0352,-0.0339,-0.0503,-0.0432,-0.0435,-0.0434,-0.0436,-0.0437,-0.0493,0,0.0282,0.0279,0.0265,0.0247,0.0241,0.0213,0.0182,0.013,0.0086,0.0036,-0.0062,-0.0117,-0.0171,-0.0189,-0.0268,-0.0374,-0.0417,-0.0372,-0.0482,-0.0484,-0.0392,-0.0444,-0.0443,-0.0499,-0.0501,-0.0503,-0.0504,0,0.0288,0.0286,0.0284,0.0257,0.0254,0.025,0.0219,0.0189,0.0118,0.0083,0.0011,-0.0055,-0.0155,-0.0184,-0.0363,-0.033,-0.0399,-0.0478,-0.0483,-0.0423,-0.043,-0.0449,-0.052,-0.0519,-0.0518,-0.0517,-0.0516,0,0.0312,0.0296,0.0303,0.0301,0.027,0.0275,0.0272,0.0221,0.0214,0.0153,0.0144,-0.0006,-0.0047,-0.0194,-0.0344,-0.0347,-0.0537,-0.056,-0.0561,-0.0556,-0.0605,-0.0599,-0.0665,-0.0665,-0.0665,-0.0665,-0.0664,0,0.0328,0.0325,0.0336,0.0347,0.0364,0.0335,0.0363,0.0332,0.0313,0.0287,0.0211,0.0132,-0.0051,-0.0187,-0.0332,-0.0469,-0.052,-0.0554,-0.0573,-0.0598,-0.059,-0.061,-0.0603,-0.0667,-0.0666,-0.0666,-0.0665,0,0.0337,0.0345,0.035,0.0361,0.0384,0.0408,0.0461,0.0476,0.0464,0.0432,0.0428,0.0257,0.0085,-0.0086,-0.0328,-0.0412,-0.0575,-0.0603,-0.0586,-0.0604,-0.0547,-0.0539,-0.0599,-0.0597,-0.0596,-0.0594,-0.0593,0,0.0337,0.0353,0.0394,0.0431,0.0455,0.0513,0.0561,0.0564,0.0558,0.0461,0.0417,0.0292,0.0158,-0.0115,-0.0311,-0.0514,-0.0543,-0.0585,-0.0592,-0.0532,-0.0545,-0.0539,-0.0533,-0.0591,-0.059,-0.059,-0.059,0,0.0335,0.0366,0.0379,0.047,0.0539,0.059,0.064,0.0626,0.0585,0.0603,0.0421,0.0285,0.0106,-0.0128,-0.0235,-0.0419,-0.0548,-0.057,-0.0574,-0.0581,-0.0523,-0.0535,-0.0532,-0.0584,-0.0585,-0.0585,-0.0586,0,0.0343,0.0359,0.0411,0.0487,0.0585,0.0615,0.0623,0.0598,0.0591,0.0483,0.0392,0.0211,0.0103,-0.0082,-0.0252,-0.0342,-0.037,-0.0402,-0.0416,-0.0423,-0.0354,-0.0253,-0.0246,0,0,0,0,0,0.0354,0.038,0.0433,0.048,0.0582,0.0646,0.0653,0.0635,0.0581,0.0485,0.0452,0.0276,0.0068,-0.0076,-0.015,-0.0233,-0.0395,-0.0322,-0.0441,-0.0554,-0.056,-0.0502,0,0,0,0,0,0,0.0347,0.0398,0.0415,0.0493,0.0553,0.063,0.0642,0.0584,0.0502,0.0443,0.0317,0.0312,0.0088,0.0151,-0.0125,-0.016,-0.0239,-0.0405,-0.0406,-0.055,-0.0556,-0.0561,-0.0503,0,0,0,0,0]}]]